This demonstration page uses our WeatherBlox Daily Observations layout. Learn more.

Left ArrowRight Arrow

39.08367, -84.50855

Hourly Observations for May 10, 2021

Temp ( °F °C ) Dew Point ( °F °C ) Humidity (%) Winds ( mph kmh ) Pressure ( in mb ) Visibility ( mi km ) Precip ( " mm )
12:53 am 00:53 Cloudy 45 7.2 39 3.9 80 80 NNE 9 15 30.03 1017 10 16.0934 N/A
1:53 am 01:53 Partly Cloudy 44 6.7 38 3.3 79 79 N N/A 30.05 1018 10 16.0934 N/A
2:53 am 02:53 Clear 40 4.4 38 3.3 93 93 N 3 6 30.05 1018 10 16.0934 N/A
3:53 am 03:53 Clear 39 3.9 39 3.9 100 100 N N/A 30.06 1018 10 16.0934 N/A
4:31 am 04:31 Clear with Mist and Fog 39 3.9 39 3.9 100 100 N N/A 30.09 1019 2.5 4.02335 N/A
4:53 am 04:53 Clear with Mist and Fog 38 3.3 38 3.3 100 100 NNE 3 6 30.07 1018 3 4.82802 N/A
5:53 am 05:53 Clear 37 2.8 37 2.8 100 100 NE 6 9 30.07 1018 10 16.0934 N/A
6:53 am 06:53 Mostly Sunny 38 3.3 37 2.8 97 97 NE 3 6 30.1 1019 8 12.87472 N/A
7:53 am 07:53 Mostly Sunny 42 5.6 40 4.4 92 92 NE 5 7 30.13 1020 10 16.0934 N/A
8:53 am 08:53 Partly Cloudy 45 7.2 41 5 86 86 ENE 6 9 30.13 1020 10 16.0934 N/A
9:53 am 09:53 Sunny 49 9.4 42 5.6 77 77 E 6 9 30.15 1021 10 16.0934 N/A
10:53 am 10:53 Sunny 52 11.1 41 5 66 66 NNW 5 7 30.14 1021 10 16.0934 N/A
11:53 am 11:53 Mostly Sunny 54 12.2 40 4.4 59 59 VRB 6 9 30.14 1021 10 16.0934 N/A
12:53 pm 12:53 Sunny 58 14.4 39 3.9 50 50 E 9 15 30.14 1021 10 16.0934 N/A
1:53 pm 13:53 Sunny 60 15.6 39 3.9 46 46 E 7 11 30.12 1020 10 16.0934 N/A
2:53 pm 14:53 Partly Cloudy 60 15.6 37 2.8 42 42 N N/A 30.13 1020 10 16.0934 N/A
3:53 pm 15:53 Partly Cloudy 64 17.8 38 3.3 38 38 VRB 3 6 30.12 1020 10 16.0934 N/A
4:53 pm 16:53 Mostly Cloudy 62 16.7 36 2.2 38 38 NNE 5 7 30.12 1020 10 16.0934 N/A
5:53 pm 17:53 Partly Cloudy 62 16.7 38 3.3 41 41 NNE 6 9 30.12 1020 10 16.0934 N/A
6:53 pm 18:53 Sunny 61 16.1 38 3.3 43 43 NNE 3 6 30.12 1020 10 16.0934 N/A
7:53 pm 19:53 Mostly Sunny 58 14.4 43 6.1 58 58 NE 3 6 30.12 1020 10 16.0934 N/A
8:53 pm 20:53 Clear 56 13.3 44 6.7 65 65 NNE 3 6 30.12 1020 10 16.0934 N/A
9:53 pm 21:53 Clear 51 10.6 47 8.3 86 86 N N/A 30.13 1020 10 16.0934 N/A
10:53 pm 22:53 Clear 50 10 45 7.2 83 83 N N/A 30.16 1021 10 16.0934 N/A
11:53 pm 23:53 Clear 48 8.9 45 7.2 89 89 NE 3 6 30.16 1021 10 16.0934 N/A

Powered by AerisWeather